Location: Mount Kobau Star Party
(49.1167°N, 119.7333°W)
Time: 14:24:03
(UTC-07:00)

ACS3 Solar Sail - Visible Passes

Search period start: 16 April 2026 00:00
Search period end: 26 April 2026 00:00
Orbit: 872 x 976 km, 97.2° (Epoch: 16 April)

Date Brightness Start Highest point End Pass type
(mag) Time Alt. Az. Time Alt. Az. Time Alt. Az.
16 Apr 2.1 01:51:50 10° NNE 01:57:44 54° E 01:58:03 53° ESE visible
16 Apr 2.8 03:34:43 10° N 03:39:52 31° WNW 03:41:37 26° W visible
17 Apr 4.0 00:22:11 10° ENE 00:23:51 11° E 00:24:21 11° E visible
17 Apr 1.8 02:01:24 10° NNE 02:07:24 64° E 02:07:54 62° SE visible
17 Apr 3.0 03:44:30 10° N 03:49:23 27° WNW 03:51:28 22° W visible
18 Apr 3.8 00:30:40 10° NE 00:33:38 14° E 00:34:08 14° E visible
18 Apr 1.7 02:10:56 10° NNE 02:17:00 76° ESE 02:17:41 68° SSE visible
18 Apr 3.2 03:54:15 10° N 03:58:49 23° WNW 04:01:14 18° W visible
19 Apr 3.6 00:39:33 10° NE 00:43:18 17° E 00:43:50 17° E visible
19 Apr 1.6 02:20:26 10° NNE 02:26:30 88° E 02:27:24 67° S visible
19 Apr 3.4 04:03:59 10° NNW 04:08:09 20° WNW 04:10:56 15° W visible
20 Apr 3.4 00:48:33 10° NE 00:52:53 20° E 00:53:28 20° E visible
20 Apr 1.7 02:29:52 10° N 02:35:55 79° WNW 02:37:01 61° SW visible
20 Apr 3.5 04:13:41 10° NNW 04:17:25 17° NW 04:20:33 12° W visible
21 Apr 3.2 00:57:35 10° NE 01:02:23 24° E 01:03:02 23° E visible
21 Apr 1.8 02:39:15 10° N 02:45:15 68° WNW 02:46:34 53° SW visible
21 Apr 3.7 04:23:24 10° NNW 04:26:34 15° NW 04:29:47 10° W visible
22 Apr 3.0 01:06:38 10° NNE 01:11:47 28° E 01:12:31 27° ESE visible
22 Apr 2.0 02:48:34 10° N 02:54:29 58° WNW 02:56:03 45° WSW visible
22 Apr 3.8 04:33:11 10° NNW 04:35:40 13° NW 04:38:09 10° WNW visible
23 Apr 2.8 01:15:39 10° NNE 01:21:06 33° E 01:21:55 32° ESE visible
23 Apr 2.2 02:57:50 10° N 03:03:38 49° WNW 03:05:27 38° WSW visible
23 Apr 3.9 04:43:12 10° NW 04:44:39 11° NW 04:46:06 10° WNW visible
24 Apr 2.6 01:24:39 10° NNE 01:30:19 39° E 01:31:15 37° ESE visible
24 Apr 2.4 03:07:03 10° N 03:12:42 42° WNW 03:14:46 32° WSW visible
25 Apr 2.3 01:33:37 10° NNE 01:39:27 46° E 01:40:31 42° ESE visible
25 Apr 2.6 03:16:13 10° N 03:21:41 37° WNW 03:24:01 27° WSW visible
